Weather History for Newburgh, NY

Change the Weather History Date:

Monday, December 10, 2012

  Actual Average Record
Temperature  
Mean Temperature 46 °F -  
Max Temperature 53 °F 40 °F 59 °F (1991)
Min Temperature 39 °F 24 °F 3 °F (1982)
Degree Days  
Heating Degree Days 19    
Moisture  
Dew Point 46 °F    
Average Humidity 98    
Maximum Humidity 100    
Minimum Humidity 93    
Precipitation  
Precipitation 0.00 in - - ()
Sea Level Pressure  
Sea Level Pressure 29.72 in    
Wind  
Wind Speed 4 mph (WNW)    
Max Wind Speed 12 mph    
Max Gust Speed -    
Visibility 3 miles    
Events Fog , Rain    
Averages and records for this station are not official NWS values.
T = Trace of Precipitation, MM = Missing Value Source: NWS Daily Summary

Daily Weather History Graph

Daily Weather History Graph

Search for Another Location

Airport:

Trip Planner

Search our weather history database for the weather conditions in past years. The results will help you decide how hot, cold, wet, or windy it might be!

Date:

Astronomy

Dec. 10, 2012 Rise Set
Actual Time 7:12 AM EST 4:26 PM EST
Civil Twilight 6:41 AM EST 4:57 PM EST
Nautical Twilight 6:06 AM EST 5:32 PM EST
Astronomical Twilight 5:32 AM EST 6:06 PM EST
Moon 3:51 AM EST (12/10) 2:15 PM EST (12/10)
Length of Visible Light 10h 16m
Length of Day
9h 14m
Waning Crescent, 10% of the Moon is Illuminated
Dec 10
Waning Crescent
Dec 13
New
Dec 20
First Quarter
Dec 28
Full
Jan 4
Last Quarter

Hourly Weather History & Observations

Time (EST) Temp. Windchill Dew Point Humidity Pressure Visibility Wind Dir Wind Speed Gust Speed Precip Events Conditions
12:45 AM 39.2 °F 35.0 °F 39.2 °F 100% 30.00 in 2.5 mi NE 5.8 mph - N/A Rain Light Rain
1:45 AM 39.2 °F - 39.2 °F 100% 29.98 in 2.0 mi Calm Calm - N/A Rain Light Rain
2:45 AM 39.2 °F 34.2 °F 37.4 °F 93% 29.95 in 2.5 mi NW 6.9 mph - N/A Rain Light Rain
3:45 AM 39.2 °F 35.0 °F 37.4 °F 93% 29.89 in 2.5 mi NW 5.8 mph - N/A Rain Light Rain
4:45 AM 39.2 °F - 39.2 °F 100% 29.85 in 1.8 mi Calm Calm - N/A   Light Drizzle
5:45 AM 39.2 °F - 39.2 °F 100% 29.83 in 1.2 mi Calm Calm - N/A   Light Drizzle
7:45 AM 39.2 °F - 39.2 °F 100% 29.80 in 0.5 mi Calm Calm - N/A Fog Fog
9:45 AM 42.8 °F - 42.8 °F 100% 29.77 in 0.5 mi Calm Calm - N/A Fog Fog
10:45 AM 44.6 °F - 44.6 °F 100% 29.74 in 1.2 mi Calm Calm - N/A   Overcast
11:45 AM 46.4 °F - 46.4 °F 100% 29.70 in 1.5 mi Calm Calm - N/A   Overcast
12:45 PM 51.8 °F - 51.8 °F 100% 29.65 in 2.0 mi Calm Calm - N/A   Overcast
1:45 PM 51.8 °F - 51.8 °F 100% 29.66 in 2.0 mi Calm Calm - N/A   Overcast
2:45 PM 53.6 °F - 51.8 °F 94% 29.61 in 7.0 mi Calm Calm - N/A   Overcast
3:45 PM 53.6 °F - 51.8 °F 94% 29.60 in 7.0 mi West 11.5 mph - N/A   Overcast
4:45 PM 53.6 °F - 51.8 °F 94% 29.59 in 7.0 mi West 11.5 mph - N/A   Overcast
5:45 PM 53.6 °F - 51.8 °F 94% 29.57 in 7.0 mi West 11.5 mph - N/A   Overcast
6:45 PM 51.8 °F - 51.8 °F 100% 29.56 in 5.0 mi West 11.5 mph - N/A   Overcast
8:45 PM 51.8 °F - 51.8 °F 100% 29.56 in 3.0 mi West 8.1 mph - N/A   Overcast
9:45 PM 53.6 °F - 51.8 °F 94% 29.56 in 5.0 mi West 8.1 mph - N/A   Overcast
10:45 PM 53.6 °F - 51.8 °F 94% 29.58 in 3.0 mi WNW 10.4 mph - N/A   Overcast